Location: Hylvaty SDH
(49.9612°N, 16.4057°E)
Time: 03:31:03
(UTC+01:00)

deb Agena D - Visible Passes

Search period start: 25 February 2021 00:00
Search period end: 07 March 2021 00:00
Orbit: 829 x 875 km, 99.0° (Epoch: 24 February)

Date Brightness Start Highest point End Pass type
(mag) Time Alt. Az. Time Alt. Az. Time Alt. Az.
25 Feb ? 02:21:09 10° N 02:21:32 12° N 02:21:32 12° N visible
26 Feb ? 02:09:32 10° N 02:10:03 12° N 02:10:03 12° N visible
27 Feb ? 01:57:57 10° N 01:58:33 13° N 01:58:33 13° N visible
28 Feb ? 01:46:22 10° N 01:47:04 13° N 01:47:04 13° N visible
01 Mar ? 01:34:50 10° N 01:35:34 14° N 01:35:34 14° N visible
02 Mar ? 01:23:19 10° N 01:24:05 14° N 01:24:05 14° N visible
02 Mar ? 03:06:00 10° NNW 03:06:07 10° NNW 03:06:07 10° NNW visible
03 Mar ? 01:11:49 10° NNE 01:12:35 14° N 01:12:35 14° N visible
03 Mar ? 02:54:03 10° NNW 02:54:37 12° NNW 02:54:37 12° NNW visible
04 Mar ? 01:00:21 10° NNE 01:01:05 14° NNE 01:01:05 14° NNE visible
04 Mar ? 02:42:15 10° NNW 02:43:07 13° NNW 02:43:07 13° NNW visible
05 Mar ? 00:48:54 10° NNE 00:49:35 14° NNE 00:49:35 14° NNE visible
05 Mar ? 02:30:31 10° N 02:31:37 14° NNW 02:31:37 14° NNW visible
06 Mar ? 00:37:28 10° NNE 00:38:05 13° NNE 00:38:05 13° NNE visible
06 Mar ? 02:18:50 10° N 02:20:07 16° NNW 02:20:07 16° NNW visible
